Year,Month,Day,Hour,Minute,Value (Times are PST for windgust in km/hr)
2012,02,22,00,00,25.70
2012,02,22,00,01,14.50
2012,02,22,00,02,14.50
2012,02,22,00,03,19.30
2012,02,22,00,04,32.20
2012,02,22,00,05,41.80
2012,02,22,00,06,24.20
2012,02,22,00,07,16.10
2012,02,22,00,08,17.70
2012,02,22,00,09,29.00
2012,02,22,00,10,30.60
2012,02,22,00,11,14.50
2012,02,22,00,12,11.30
2012,02,22,00,13,27.40
2012,02,22,00,14,29.00
2012,02,22,00,15,24.20
2012,02,22,00,16,24.20
2012,02,22,00,17,30.60
2012,02,22,00,18,25.70
2012,02,22,00,19,29.00
2012,02,22,00,20,27.40
2012,02,22,00,21,38.60
2012,02,22,00,22,38.60
2012,02,22,00,23,38.60
2012,02,22,00,24,30.60
2012,02,22,00,25,33.80
2012,02,22,00,26,24.20
2012,02,22,00,27,30.60
2012,02,22,00,28,45.10
2012,02,22,00,29,35.40
2012,02,22,00,30,30.60
2012,02,22,00,31,22.50
2012,02,22,00,32,24.20
2012,02,22,00,33,32.20
2012,02,22,00,34,35.40
2012,02,22,00,35,41.80
2012,02,22,00,36,40.20
2012,02,22,00,37,20.90
2012,02,22,00,38,32.20
2012,02,22,00,39,38.60
2012,02,22,00,40,30.60
2012,02,22,00,41,40.20
2012,02,22,00,42,22.50
2012,02,22,00,43,14.50
2012,02,22,00,44,29.00
2012,02,22,00,45,38.60
2012,02,22,00,46,22.50
2012,02,22,00,47,22.50
2012,02,22,00,48,25.70
2012,02,22,00,49,27.40
2012,02,22,00,50,29.00
2012,02,22,00,51,22.50
2012,02,22,00,52,27.40
2012,02,22,00,53,30.60
2012,02,22,00,54,35.40
2012,02,22,00,55,33.80
2012,02,22,00,56,29.00
2012,02,22,00,57,24.20
2012,02,22,00,58,19.30
2012,02,22,00,59,22.50
2012,02,22,01,00,37.00
2012,02,22,01,01,27.40
2012,02,22,01,02,35.40
2012,02,22,01,03,41.80
2012,02,22,01,04,46.70
2012,02,22,01,05,19.30
2012,02,22,01,06,29.00
2012,02,22,01,07,27.40
2012,02,22,01,08,20.90
2012,02,22,01,09,27.40
2012,02,22,01,10,22.50
2012,02,22,01,11,25.70
2012,02,22,01,12,19.30
2012,02,22,01,13,24.20
2012,02,22,01,14,20.90
2012,02,22,01,15,22.50
2012,02,22,01,16,25.70
2012,02,22,01,17,20.90
2012,02,22,01,18,25.70
2012,02,22,01,19,25.70
2012,02,22,01,20,35.40
2012,02,22,01,21,37.00
2012,02,22,01,22,24.20
2012,02,22,01,23,35.40
2012,02,22,01,24,24.20
2012,02,22,01,25,22.50
2012,02,22,01,26,20.90
2012,02,22,01,27,25.70
2012,02,22,01,28,24.20
2012,02,22,01,29,30.60
2012,02,22,01,30,37.00
2012,02,22,01,31,25.70
2012,02,22,01,32,37.00
2012,02,22,01,33,33.80
2012,02,22,01,34,25.70
2012,02,22,01,35,17.70
2012,02,22,01,36,25.70
2012,02,22,01,37,38.60
2012,02,22,01,38,27.40
2012,02,22,01,39,19.30
2012,02,22,01,40,17.70
2012,02,22,01,41,16.10
2012,02,22,01,42,17.70
2012,02,22,01,43,30.60
2012,02,22,01,44,16.10
2012,02,22,01,45,19.30
2012,02,22,01,46,20.90
2012,02,22,01,47,17.70
2012,02,22,01,48,20.90
2012,02,22,01,49,24.20
2012,02,22,01,50,20.90
2012,02,22,01,51,20.90
2012,02,22,01,52,27.40
2012,02,22,01,53,22.50
2012,02,22,01,54,25.70
2012,02,22,01,55,12.90
2012,02,22,01,56,24.20
2012,02,22,01,57,16.10
2012,02,22,01,58,27.40
2012,02,22,01,59,14.50
2012,02,22,02,00,19.30
2012,02,22,02,01,38.60
2012,02,22,02,02,19.30
2012,02,22,02,03,27.40
2012,02,22,02,04,19.30
2012,02,22,02,05,20.90
2012,02,22,02,06,32.20
2012,02,22,02,07,33.80
2012,02,22,02,08,11.30
2012,02,22,02,09,8.10
2012,02,22,02,10,27.40
2012,02,22,02,11,12.90
2012,02,22,02,12,20.90
2012,02,22,02,13,17.70
2012,02,22,02,14,24.20
2012,02,22,02,15,16.10
2012,02,22,02,16,22.50
2012,02,22,02,17,25.70
2012,02,22,02,18,17.70
2012,02,22,02,19,22.50
2012,02,22,02,20,11.30
2012,02,22,02,21,14.50
2012,02,22,02,22,24.20
2012,02,22,02,23,16.10
2012,02,22,02,24,24.20
2012,02,22,02,25,19.30
2012,02,22,02,26,25.70
2012,02,22,02,27,30.60
2012,02,22,02,28,30.60
2012,02,22,02,29,30.60
2012,02,22,02,30,14.50
2012,02,22,02,31,19.30
2012,02,22,02,32,11.30
2012,02,22,02,33,17.70
2012,02,22,02,34,33.80
2012,02,22,02,35,17.70
2012,02,22,02,36,22.50
2012,02,22,02,37,17.70
2012,02,22,02,38,19.30
2012,02,22,02,39,9.60
2012,02,22,02,40,19.30
2012,02,22,02,41,19.30
2012,02,22,02,42,33.80
2012,02,22,02,43,30.60
2012,02,22,02,44,38.60
2012,02,22,02,45,32.20
2012,02,22,02,46,17.70
2012,02,22,02,47,24.20
2012,02,22,02,48,32.20
2012,02,22,02,49,43.50
2012,02,22,02,50,45.10
2012,02,22,02,51,41.80
2012,02,22,02,52,32.20
2012,02,22,02,53,32.20
2012,02,22,02,54,35.40
2012,02,22,02,55,29.00
2012,02,22,02,56,22.50
2012,02,22,02,57,19.30
2012,02,22,02,58,16.10
2012,02,22,02,59,14.50
2012,02,22,03,00,11.30
2012,02,22,03,01,11.30
2012,02,22,03,02,11.30
2012,02,22,03,03,14.50
2012,02,22,03,04,14.50
2012,02,22,03,05,8.10
2012,02,22,03,06,17.70
2012,02,22,03,07,33.80
2012,02,22,03,08,19.30
2012,02,22,03,09,9.60
2012,02,22,03,10,8.10
2012,02,22,03,11,6.40
2012,02,22,03,12,9.60
2012,02,22,03,13,19.30
2012,02,22,03,14,11.30
2012,02,22,03,15,14.50
2012,02,22,03,16,8.10
2012,02,22,03,17,11.30
2012,02,22,03,18,22.50
2012,02,22,03,19,9.60
2012,02,22,03,20,11.30
2012,02,22,03,21,8.10
2012,02,22,03,22,22.50
2012,02,22,03,23,16.10
2012,02,22,03,24,19.30
2012,02,22,03,25,11.30
2012,02,22,03,26,16.10
2012,02,22,03,27,16.10
2012,02,22,03,28,16.10
2012,02,22,03,29,16.10
2012,02,22,03,30,16.10
2012,02,22,03,31,12.90
2012,02,22,03,32,17.70
2012,02,22,03,33,19.30
2012,02,22,03,34,14.50
2012,02,22,03,35,9.60
2012,02,22,03,36,16.10
2012,02,22,03,37,8.10
2012,02,22,03,38,9.60
2012,02,22,03,39,11.30
2012,02,22,03,40,8.10
2012,02,22,03,41,11.30
2012,02,22,03,42,1.60
2012,02,22,03,43,9.60
2012,02,22,03,44,11.30
2012,02,22,03,45,12.90
2012,02,22,03,46,6.40
2012,02,22,03,47,8.10
2012,02,22,03,48,6.40
2012,02,22,03,49,6.40
2012,02,22,03,50,8.10
2012,02,22,03,51,6.40
2012,02,22,03,52,8.10
2012,02,22,03,53,3.20
2012,02,22,03,54,6.40
2012,02,22,03,55,8.10
2012,02,22,03,56,9.60
2012,02,22,03,57,8.10
2012,02,22,03,58,9.60
2012,02,22,03,59,8.10
2012,02,22,04,00,8.10
2012,02,22,04,01,8.10
2012,02,22,04,02,4.80
2012,02,22,04,03,9.60
2012,02,22,04,04,9.60
2012,02,22,04,05,8.10
2012,02,22,04,06,8.10
2012,02,22,04,07,1.60
2012,02,22,04,08,4.80
2012,02,22,04,09,4.80
2012,02,22,04,10,3.20
2012,02,22,04,11,3.20
2012,02,22,04,12,6.40
2012,02,22,04,13,6.40
2012,02,22,04,14,6.40
2012,02,22,04,15,9.60
2012,02,22,04,16,11.30
2012,02,22,04,17,11.30
2012,02,22,04,18,14.50
2012,02,22,04,19,14.50
2012,02,22,04,20,6.40
2012,02,22,04,21,6.40
2012,02,22,04,22,11.30
2012,02,22,04,23,3.20
2012,02,22,04,24,14.50
2012,02,22,04,25,17.70
2012,02,22,04,26,17.70
2012,02,22,04,27,20.90
2012,02,22,04,28,19.30
2012,02,22,04,29,14.50
2012,02,22,04,30,11.30
2012,02,22,04,31,6.40
2012,02,22,04,32,16.10
2012,02,22,04,33,14.50
2012,02,22,04,34,4.80
2012,02,22,04,35,11.30
2012,02,22,04,36,9.60
2012,02,22,04,37,8.10
2012,02,22,04,38,8.10
2012,02,22,04,39,14.50
2012,02,22,04,40,6.40
2012,02,22,04,41,11.30
2012,02,22,04,42,11.30
2012,02,22,04,43,9.60
2012,02,22,04,44,8.10
2012,02,22,04,45,17.70
2012,02,22,04,46,8.10
2012,02,22,04,47,4.80
2012,02,22,04,48,4.80
2012,02,22,04,49,6.40
2012,02,22,04,50,9.60
2012,02,22,04,51,9.60
2012,02,22,04,52,6.40
2012,02,22,04,53,9.60
2012,02,22,04,54,6.40
2012,02,22,04,55,3.20
2012,02,22,04,56,1.60
2012,02,22,04,57,1.60
2012,02,22,04,58,4.80
2012,02,22,04,59,8.10
2012,02,22,05,00,3.20
2012,02,22,05,01,3.20
2012,02,22,05,02,3.20
2012,02,22,05,03,3.20
2012,02,22,05,04,3.20
2012,02,22,05,05,4.80
2012,02,22,05,06,4.80
2012,02,22,05,07,11.30
2012,02,22,05,08,11.30
2012,02,22,05,09,8.10
2012,02,22,05,10,12.90
2012,02,22,05,11,16.10
2012,02,22,05,12,8.10
2012,02,22,05,13,11.30
2012,02,22,05,14,9.60
2012,02,22,05,15,9.60
2012,02,22,05,16,11.30
2012,02,22,05,17,14.50
2012,02,22,05,18,8.10
2012,02,22,05,19,11.30
2012,02,22,05,20,19.30
2012,02,22,05,21,14.50
2012,02,22,05,22,17.70
2012,02,22,05,23,11.30
2012,02,22,05,24,11.30
2012,02,22,05,25,9.60
2012,02,22,05,26,12.90
2012,02,22,05,27,6.40
2012,02,22,05,28,9.60
2012,02,22,05,29,9.60
2012,02,22,05,30,16.10
2012,02,22,05,31,9.60
2012,02,22,05,32,8.10
2012,02,22,05,33,9.60
2012,02,22,05,34,9.60
2012,02,22,05,35,9.60
2012,02,22,05,36,9.60
2012,02,22,05,37,14.50
2012,02,22,05,38,12.90
2012,02,22,05,39,9.60
2012,02,22,05,40,6.40
2012,02,22,05,41,8.10
2012,02,22,05,42,6.40
2012,02,22,05,43,8.10
2012,02,22,05,44,14.50
2012,02,22,05,45,9.60
2012,02,22,05,46,11.30
2012,02,22,05,47,3.20
2012,02,22,05,48,9.60
2012,02,22,05,49,8.10
2012,02,22,05,50,6.40
2012,02,22,05,51,4.80
2012,02,22,05,52,8.10
2012,02,22,05,53,4.80
2012,02,22,05,54,8.10
2012,02,22,05,55,6.40
2012,02,22,05,56,4.80
2012,02,22,05,57,8.10
2012,02,22,05,58,8.10
2012,02,22,05,59,8.10
2012,02,22,06,00,8.10
2012,02,22,06,01,8.10
2012,02,22,06,02,9.60
2012,02,22,06,03,8.10
2012,02,22,06,04,6.40
2012,02,22,06,05,9.60
2012,02,22,06,06,11.30
2012,02,22,06,07,9.60
2012,02,22,06,08,11.30
2012,02,22,06,09,8.10
2012,02,22,06,10,6.40
2012,02,22,06,11,8.10
2012,02,22,06,12,6.40
2012,02,22,06,13,9.60
2012,02,22,06,14,11.30
2012,02,22,06,15,9.60
2012,02,22,06,16,9.60
2012,02,22,06,17,16.10
2012,02,22,06,18,11.30
2012,02,22,06,19,16.10
2012,02,22,06,20,14.50
2012,02,22,06,21,19.30
2012,02,22,06,22,11.30
2012,02,22,06,23,16.10
2012,02,22,06,24,19.30
2012,02,22,06,25,19.30
2012,02,22,06,26,17.70
2012,02,22,06,27,12.90
2012,02,22,06,28,6.40
2012,02,22,06,29,11.30
2012,02,22,06,30,8.10
2012,02,22,06,31,8.10
2012,02,22,06,32,8.10
2012,02,22,06,33,11.30
2012,02,22,06,34,8.10
2012,02,22,06,35,4.80
2012,02,22,06,36,11.30
2012,02,22,06,37,8.10
2012,02,22,06,38,11.30
2012,02,22,06,39,20.90
2012,02,22,06,40,19.30
2012,02,22,06,41,16.10
2012,02,22,06,42,8.10
2012,02,22,06,43,9.60
2012,02,22,06,44,11.30
2012,02,22,06,45,9.60
2012,02,22,06,46,8.10
2012,02,22,06,47,6.40
2012,02,22,06,48,11.30
2012,02,22,06,49,9.60
2012,02,22,06,50,16.10
2012,02,22,06,51,11.30
2012,02,22,06,52,16.10
2012,02,22,06,53,8.10
2012,02,22,06,54,11.30
2012,02,22,06,55,16.10
2012,02,22,06,56,14.50
2012,02,22,06,57,17.70
2012,02,22,06,58,19.30
2012,02,22,06,59,14.50
2012,02,22,07,00,17.70
2012,02,22,07,01,16.10
2012,02,22,07,02,22.50
2012,02,22,07,03,9.60
2012,02,22,07,04,19.30
2012,02,22,07,05,14.50
2012,02,22,07,06,19.30
2012,02,22,07,07,24.20
2012,02,22,07,08,20.90
2012,02,22,07,09,19.30
2012,02,22,07,10,24.20
2012,02,22,07,11,22.50
2012,02,22,07,12,19.30
2012,02,22,07,13,17.70
2012,02,22,07,14,22.50
2012,02,22,07,15,19.30
2012,02,22,07,16,20.90
2012,02,22,07,17,32.20
2012,02,22,07,18,22.50
2012,02,22,07,19,22.50
2012,02,22,07,20,19.30
2012,02,22,07,21,17.70
2012,02,22,07,22,20.90
2012,02,22,07,23,9.60
2012,02,22,07,24,14.50
2012,02,22,07,25,20.90
2012,02,22,07,26,19.30
2012,02,22,07,27,17.70
2012,02,22,07,28,20.90
2012,02,22,07,29,25.70
2012,02,22,07,30,20.90
2012,02,22,07,31,32.20
2012,02,22,07,32,25.70
2012,02,22,07,33,25.70
2012,02,22,07,34,46.70
2012,02,22,07,35,33.80
2012,02,22,07,36,22.50
2012,02,22,07,37,27.40
2012,02,22,07,38,41.80
2012,02,22,07,39,38.60
2012,02,22,07,40,45.10
2012,02,22,07,41,32.20
2012,02,22,07,42,30.60
2012,02,22,07,43,32.20
2012,02,22,07,44,41.80
2012,02,22,07,45,29.00
2012,02,22,07,46,22.50
2012,02,22,07,47,29.00
2012,02,22,07,48,32.20
2012,02,22,07,49,25.70
2012,02,22,07,50,35.40
2012,02,22,07,51,25.70
2012,02,22,07,52,24.20
2012,02,22,07,53,37.00
2012,02,22,07,54,32.20
2012,02,22,07,55,27.40
2012,02,22,07,56,38.60
2012,02,22,07,57,33.80
2012,02,22,07,58,30.60
2012,02,22,07,59,41.80
2012,02,22,08,00,37.00
2012,02,22,08,01,57.90
2012,02,22,08,02,45.10
2012,02,22,08,03,37.00
2012,02,22,08,04,51.50
2012,02,22,08,05,38.60
2012,02,22,08,06,32.20
2012,02,22,08,07,33.80
2012,02,22,08,08,22.50
2012,02,22,08,09,30.60
2012,02,22,08,10,30.60
2012,02,22,08,11,43.50
2012,02,22,08,12,41.80
2012,02,22,08,13,37.00
2012,02,22,08,14,43.50
2012,02,22,08,15,53.10
2012,02,22,08,16,37.00
2012,02,22,08,17,38.60
2012,02,22,08,18,29.00
2012,02,22,08,19,33.80
2012,02,22,08,20,30.60
2012,02,22,08,21,51.50
2012,02,22,08,22,37.00
2012,02,22,08,23,27.40
2012,02,22,08,24,29.00
2012,02,22,08,25,48.30
2012,02,22,08,26,33.80
2012,02,22,08,27,35.40
2012,02,22,08,28,38.60
2012,02,22,08,29,57.90
2012,02,22,08,30,53.10
2012,02,22,08,31,40.20
2012,02,22,08,32,29.00
2012,02,22,08,33,46.70
2012,02,22,08,34,33.80
2012,02,22,08,35,43.50
2012,02,22,08,36,35.40
2012,02,22,08,37,41.80
2012,02,22,08,38,35.40
2012,02,22,08,39,40.20
2012,02,22,08,40,37.00
2012,02,22,08,41,45.10
2012,02,22,08,42,37.00
2012,02,22,08,43,37.00
2012,02,22,08,44,37.00
2012,02,22,08,45,37.00
2012,02,22,08,46,41.80
2012,02,22,08,47,37.00
2012,02,22,08,48,25.70
2012,02,22,08,49,45.10
2012,02,22,08,50,53.10
2012,02,22,08,51,41.80
2012,02,22,08,52,59.50
2012,02,22,08,53,38.60
2012,02,22,08,54,35.40
2012,02,22,08,55,20.90
2012,02,22,08,56,74.00
2012,02,22,08,57,48.30
2012,02,22,08,58,24.20
2012,02,22,08,59,22.50
2012,02,22,09,00,38.60
2012,02,22,09,01,32.20
2012,02,22,09,02,43.50
2012,02,22,09,03,33.80
2012,02,22,09,04,17.70
2012,02,22,09,05,41.80
2012,02,22,09,06,33.80
2012,02,22,09,07,27.40
2012,02,22,09,08,29.00
2012,02,22,09,09,29.00
2012,02,22,09,10,17.70
2012,02,22,09,11,30.60
2012,02,22,09,12,51.50
2012,02,22,09,13,37.00
2012,02,22,09,14,38.60
2012,02,22,09,15,46.70
2012,02,22,09,16,33.80
2012,02,22,09,17,40.20
2012,02,22,09,18,35.40
2012,02,22,09,19,53.10
2012,02,22,09,20,29.00
2012,02,22,09,21,37.00
2012,02,22,09,22,30.60
2012,02,22,09,23,35.40
2012,02,22,09,24,33.80
2012,02,22,09,25,32.20
2012,02,22,09,26,19.30
2012,02,22,09,27,32.20
2012,02,22,09,28,27.40
2012,02,22,09,29,37.00
2012,02,22,09,30,16.10
2012,02,22,09,31,12.90
2012,02,22,09,32,20.90
2012,02,22,09,33,32.20
2012,02,22,09,34,46.70
2012,02,22,09,35,22.50
2012,02,22,09,36,45.10
2012,02,22,09,37,35.40
2012,02,22,09,38,17.70
2012,02,22,09,39,40.20
2012,02,22,09,40,25.70
2012,02,22,09,41,16.10
2012,02,22,09,42,37.00
2012,02,22,09,43,17.70
2012,02,22,09,44,19.30
2012,02,22,09,45,22.50
2012,02,22,09,46,24.20
2012,02,22,09,47,43.50
2012,02,22,09,48,22.50
2012,02,22,09,49,22.50
2012,02,22,09,50,30.60
2012,02,22,09,51,38.60
2012,02,22,09,52,27.40
2012,02,22,09,53,27.40
2012,02,22,09,54,20.90
2012,02,22,09,55,22.50
2012,02,22,09,56,37.00
2012,02,22,09,57,40.20
2012,02,22,09,58,32.20
2012,02,22,09,59,37.00
2012,02,22,10,00,25.70
2012,02,22,10,01,20.90
2012,02,22,10,02,35.40
2012,02,22,10,03,29.00
2012,02,22,10,04,25.70
2012,02,22,10,05,29.00
2012,02,22,10,06,25.70
2012,02,22,10,07,41.80
2012,02,22,10,08,27.40
2012,02,22,10,09,38.60
2012,02,22,10,10,35.40
2012,02,22,10,11,9.60
2012,02,22,10,12,27.40
2012,02,22,10,13,25.70
2012,02,22,10,14,12.90
2012,02,22,10,15,22.50
2012,02,22,10,16,19.30
2012,02,22,10,17,19.30
2012,02,22,10,18,33.80
2012,02,22,10,19,27.40
2012,02,22,10,20,24.20
2012,02,22,10,21,27.40
2012,02,22,10,22,33.80
2012,02,22,10,23,41.80
2012,02,22,10,24,30.60
2012,02,22,10,25,38.60
2012,02,22,10,26,46.70
2012,02,22,10,27,27.40
2012,02,22,10,28,25.70
2012,02,22,10,29,25.70
2012,02,22,10,30,22.50
2012,02,22,10,31,27.40
2012,02,22,10,32,37.00
2012,02,22,10,33,35.40
2012,02,22,10,34,40.20
2012,02,22,10,35,30.60
2012,02,22,10,36,24.20
2012,02,22,10,37,38.60
2012,02,22,10,38,38.60
2012,02,22,10,39,27.40
2012,02,22,10,40,32.20
2012,02,22,10,41,43.50
2012,02,22,10,42,25.70
2012,02,22,10,43,27.40
2012,02,22,10,44,32.20
2012,02,22,10,45,35.40
2012,02,22,10,46,29.00
2012,02,22,10,47,25.70
2012,02,22,10,48,37.00
2012,02,22,10,49,38.60
2012,02,22,10,50,38.60
2012,02,22,10,51,24.20
2012,02,22,10,52,27.40
2012,02,22,10,53,11.30
2012,02,22,10,54,27.40
2012,02,22,10,55,27.40
2012,02,22,10,56,25.70
2012,02,22,10,57,41.80
2012,02,22,10,58,30.60
2012,02,22,10,59,19.30
2012,02,22,11,00,45.10
2012,02,22,11,01,45.10
2012,02,22,11,02,40.20
2012,02,22,11,03,35.40
2012,02,22,11,04,49.90
2012,02,22,11,05,51.50
2012,02,22,11,06,24.20
2012,02,22,11,07,40.20
2012,02,22,11,08,29.00
2012,02,22,11,09,30.60
2012,02,22,11,10,37.00
2012,02,22,11,11,29.00
2012,02,22,11,12,38.60
2012,02,22,11,13,32.20
2012,02,22,11,14,40.20
2012,02,22,11,15,38.60
2012,02,22,11,16,32.20
2012,02,22,11,17,17.70
2012,02,22,11,18,27.40
2012,02,22,11,19,27.40
2012,02,22,11,20,40.20
2012,02,22,11,21,30.60
2012,02,22,11,22,32.20
2012,02,22,11,23,32.20
2012,02,22,11,24,19.30
2012,02,22,11,25,32.20
2012,02,22,11,26,25.70
2012,02,22,11,27,40.20
2012,02,22,11,28,53.10
2012,02,22,11,29,33.80
2012,02,22,11,30,35.40
2012,02,22,11,31,33.80
2012,02,22,11,32,33.80
2012,02,22,11,33,41.80
2012,02,22,11,34,49.90
2012,02,22,11,35,46.70
2012,02,22,11,36,30.60
2012,02,22,11,37,51.50
2012,02,22,11,38,40.20
2012,02,22,11,39,25.70
2012,02,22,11,40,29.00
2012,02,22,11,41,29.00
2012,02,22,11,42,40.20
2012,02,22,11,43,46.70
2012,02,22,11,44,33.80
2012,02,22,11,45,27.40
2012,02,22,11,46,29.00
2012,02,22,11,47,32.20
2012,02,22,11,48,29.00
2012,02,22,11,49,37.00
2012,02,22,11,50,37.00
2012,02,22,11,51,35.40
2012,02,22,11,52,32.20
2012,02,22,11,53,25.70
2012,02,22,11,54,30.60
2012,02,22,11,55,38.60
2012,02,22,11,56,43.50
2012,02,22,11,57,20.90
2012,02,22,11,58,33.80
2012,02,22,11,59,33.80
2012,02,22,12,00,19.30
2012,02,22,12,01,17.70
2012,02,22,12,02,20.90
2012,02,22,12,03,29.00
2012,02,22,12,04,24.20
2012,02,22,12,05,14.50
2012,02,22,12,06,22.50
2012,02,22,12,07,32.20
2012,02,22,12,08,27.40
2012,02,22,12,09,24.20
2012,02,22,12,10,25.70
2012,02,22,12,11,29.00
2012,02,22,12,12,29.00
2012,02,22,12,13,22.50
2012,02,22,12,14,19.30
2012,02,22,12,15,29.00
2012,02,22,12,16,30.60
2012,02,22,12,17,49.90
2012,02,22,12,18,19.30
2012,02,22,12,19,16.10
2012,02,22,12,20,33.80
2012,02,22,12,21,25.70
2012,02,22,12,22,30.60
2012,02,22,12,23,35.40
2012,02,22,12,24,33.80
2012,02,22,12,25,35.40
2012,02,22,12,26,30.60
2012,02,22,12,27,32.20
2012,02,22,12,28,32.20
2012,02,22,12,29,16.10
2012,02,22,12,30,29.00
2012,02,22,12,31,27.40
2012,02,22,12,32,17.70
2012,02,22,12,33,16.10
2012,02,22,12,34,33.80
2012,02,22,12,35,22.50
2012,02,22,12,36,25.70
2012,02,22,12,37,25.70
2012,02,22,12,38,24.20
2012,02,22,12,39,35.40
2012,02,22,12,40,27.40
2012,02,22,12,41,32.20
2012,02,22,12,42,24.20
2012,02,22,12,43,25.70
2012,02,22,12,44,22.50
2012,02,22,12,45,17.70
2012,02,22,12,46,33.80
2012,02,22,12,47,25.70
2012,02,22,12,48,25.70
2012,02,22,12,49,22.50
2012,02,22,12,50,35.40
2012,02,22,12,51,29.00
2012,02,22,12,52,24.20
2012,02,22,12,53,35.40
2012,02,22,12,54,37.00
2012,02,22,12,55,43.50
2012,02,22,12,56,51.50
2012,02,22,12,57,25.70
2012,02,22,12,58,27.40
2012,02,22,12,59,35.40
2012,02,22,13,00,30.60
2012,02,22,13,01,27.40
2012,02,22,13,02,32.20
2012,02,22,13,03,25.70
2012,02,22,13,04,30.60
2012,02,22,13,05,41.80
2012,02,22,13,06,38.60
2012,02,22,13,07,51.50
2012,02,22,13,08,29.00
2012,02,22,13,09,29.00
2012,02,22,13,10,46.70
2012,02,22,13,11,38.60
2012,02,22,13,12,45.10
2012,02,22,13,13,14.50
2012,02,22,13,14,25.70
2012,02,22,13,15,14.50
2012,02,22,13,16,19.30
2012,02,22,13,17,27.40
2012,02,22,13,18,30.60
2012,02,22,13,19,35.40
2012,02,22,13,20,33.80
2012,02,22,13,21,22.50
2012,02,22,13,22,8.10
2012,02,22,13,23,25.70
2012,02,22,13,24,27.40
2012,02,22,13,25,30.60
2012,02,22,13,26,33.80
2012,02,22,13,27,27.40
2012,02,22,13,28,27.40
2012,02,22,13,29,27.40
2012,02,22,13,30,24.20
2012,02,22,13,31,16.10
2012,02,22,13,32,30.60
2012,02,22,13,33,30.60
2012,02,22,13,34,27.40
2012,02,22,13,35,30.60
2012,02,22,13,36,22.50
2012,02,22,13,37,20.90
2012,02,22,13,38,19.30
2012,02,22,13,39,17.70
2012,02,22,13,40,25.70
2012,02,22,13,41,29.00
2012,02,22,13,42,25.70
2012,02,22,13,43,19.30
2012,02,22,13,44,24.20
2012,02,22,13,45,29.00
2012,02,22,13,46,25.70
2012,02,22,13,47,20.90
2012,02,22,13,48,27.40
2012,02,22,13,49,22.50
2012,02,22,13,50,27.40
2012,02,22,13,51,30.60
2012,02,22,13,52,24.20
2012,02,22,13,53,20.90
2012,02,22,13,54,30.60
2012,02,22,13,55,19.30
2012,02,22,13,56,27.40
2012,02,22,13,57,19.30
2012,02,22,13,58,24.20
2012,02,22,13,59,35.40
2012,02,22,14,00,29.00
2012,02,22,14,01,14.50
2012,02,22,14,02,29.00
2012,02,22,14,03,37.00
2012,02,22,14,04,22.50
2012,02,22,14,05,30.60
2012,02,22,14,06,30.60
2012,02,22,14,07,53.10
2012,02,22,14,08,35.40
2012,02,22,14,09,27.40
2012,02,22,14,10,20.90
2012,02,22,14,11,19.30
2012,02,22,14,12,30.60
2012,02,22,14,13,32.20
2012,02,22,14,14,29.00
2012,02,22,14,15,33.80
2012,02,22,14,16,40.20
2012,02,22,14,17,41.80
2012,02,22,14,18,35.40
2012,02,22,14,19,33.80
2012,02,22,14,20,29.00
2012,02,22,14,21,27.40
2012,02,22,14,22,38.60
2012,02,22,14,23,32.20
2012,02,22,14,24,24.20
2012,02,22,14,25,25.70
2012,02,22,14,26,38.60
2012,02,22,14,27,38.60
2012,02,22,14,28,22.50
2012,02,22,14,29,37.00
2012,02,22,14,30,32.20
2012,02,22,14,31,22.50
2012,02,22,14,32,33.80
2012,02,22,14,33,25.70
2012,02,22,14,34,22.50
2012,02,22,14,35,33.80
2012,02,22,14,36,35.40
2012,02,22,14,37,30.60
2012,02,22,14,38,22.50
2012,02,22,14,39,22.50
2012,02,22,14,40,25.70
2012,02,22,14,41,29.00
2012,02,22,14,42,19.30
2012,02,22,14,43,25.70
2012,02,22,14,44,30.60
2012,02,22,14,45,24.20
2012,02,22,14,46,22.50
2012,02,22,14,47,22.50
2012,02,22,14,48,27.40
2012,02,22,14,49,22.50
2012,02,22,14,50,30.60
2012,02,22,14,51,30.60
2012,02,22,14,52,38.60
2012,02,22,14,53,29.00
2012,02,22,14,54,20.90
2012,02,22,14,55,32.20
2012,02,22,14,56,35.40
2012,02,22,14,57,33.80
2012,02,22,14,58,29.00
2012,02,22,14,59,33.80
2012,02,22,15,00,25.70
2012,02,22,15,01,29.00
2012,02,22,15,02,25.70
2012,02,22,15,03,24.20
2012,02,22,15,04,27.40
2012,02,22,15,05,32.20
2012,02,22,15,06,32.20
2012,02,22,15,07,24.20
2012,02,22,15,08,30.60
2012,02,22,15,09,33.80
2012,02,22,15,10,29.00
2012,02,22,15,11,29.00
2012,02,22,15,12,30.60
2012,02,22,15,13,29.00
2012,02,22,15,14,38.60
2012,02,22,15,15,29.00
2012,02,22,15,16,32.20
2012,02,22,15,17,20.90
2012,02,22,15,18,16.10
2012,02,22,15,19,27.40
2012,02,22,15,20,32.20
2012,02,22,15,21,30.60
2012,02,22,15,22,24.20
2012,02,22,15,23,25.70
2012,02,22,15,24,29.00
2012,02,22,15,25,22.50
2012,02,22,15,26,19.30
2012,02,22,15,27,17.70
2012,02,22,15,28,35.40
2012,02,22,15,29,29.00
2012,02,22,15,30,24.20
2012,02,22,15,31,30.60
2012,02,22,15,32,24.20
2012,02,22,15,33,35.40
2012,02,22,15,34,22.50
2012,02,22,15,35,24.20
2012,02,22,15,36,16.10
2012,02,22,15,37,17.70
2012,02,22,15,38,17.70
2012,02,22,15,39,25.70
2012,02,22,15,40,17.70
2012,02,22,15,41,24.20
2012,02,22,15,42,17.70
2012,02,22,15,43,27.40
2012,02,22,15,44,25.70
2012,02,22,15,45,19.30
2012,02,22,15,46,25.70
2012,02,22,15,47,27.40
2012,02,22,15,48,29.00
2012,02,22,15,49,20.90
2012,02,22,15,50,25.70
2012,02,22,15,51,20.90
2012,02,22,15,52,16.10
2012,02,22,15,53,20.90
2012,02,22,15,54,16.10
2012,02,22,15,55,25.70
2012,02,22,15,56,22.50
2012,02,22,15,57,24.20
2012,02,22,15,58,29.00
2012,02,22,15,59,32.20
2012,02,22,16,00,19.30
2012,02,22,16,01,27.40
2012,02,22,16,02,27.40
2012,02,22,16,03,22.50
2012,02,22,16,04,29.00
2012,02,22,16,05,27.40
2012,02,22,16,06,17.70
2012,02,22,16,07,22.50
2012,02,22,16,08,22.50
2012,02,22,16,09,27.40
2012,02,22,16,10,29.00
2012,02,22,16,11,17.70
2012,02,22,16,12,22.50
2012,02,22,16,13,17.70
2012,02,22,16,14,29.00
2012,02,22,16,15,32.20
2012,02,22,16,16,29.00
2012,02,22,16,17,35.40
2012,02,22,16,18,27.40
2012,02,22,16,19,19.30
2012,02,22,16,20,30.60
2012,02,22,16,21,25.70
2012,02,22,16,22,33.80
2012,02,22,16,23,37.00
2012,02,22,16,24,29.00
2012,02,22,16,25,38.60
2012,02,22,16,26,24.20
2012,02,22,16,27,32.20
2012,02,22,16,28,27.40
2012,02,22,16,29,30.60
2012,02,22,16,30,29.00
2012,02,22,16,31,29.00
2012,02,22,16,32,30.60
2012,02,22,16,33,32.20
2012,02,22,16,34,29.00
2012,02,22,16,35,25.70
2012,02,22,16,36,25.70
2012,02,22,16,37,29.00
2012,02,22,16,38,22.50
2012,02,22,16,39,17.70
2012,02,22,16,40,17.70
2012,02,22,16,41,11.30
2012,02,22,16,42,20.90
2012,02,22,16,43,25.70
2012,02,22,16,44,20.90
2012,02,22,16,45,12.90
2012,02,22,16,46,17.70
2012,02,22,16,47,35.40
2012,02,22,16,48,9.60
2012,02,22,16,49,16.10
2012,02,22,16,50,16.10
2012,02,22,16,51,9.60
2012,02,22,16,52,11.30
2012,02,22,16,53,27.40
2012,02,22,16,54,19.30
2012,02,22,16,55,25.70
2012,02,22,16,56,27.40
2012,02,22,16,57,16.10
2012,02,22,16,58,11.30
2012,02,22,16,59,20.90
2012,02,22,17,00,16.10
2012,02,22,17,01,16.10
2012,02,22,17,02,11.30
2012,02,22,17,03,24.20
2012,02,22,17,04,19.30
2012,02,22,17,05,19.30
2012,02,22,17,06,11.30
2012,02,22,17,07,8.10
2012,02,22,17,08,19.30
2012,02,22,17,09,12.90
2012,02,22,17,10,16.10
2012,02,22,17,11,16.10
2012,02,22,17,12,24.20
2012,02,22,17,13,9.60
2012,02,22,17,14,9.60
2012,02,22,17,15,22.50
2012,02,22,17,16,17.70
2012,02,22,17,17,17.70
2012,02,22,17,18,8.10
2012,02,22,17,19,8.10
2012,02,22,17,20,4.80
2012,02,22,17,21,8.10
2012,02,22,17,22,9.60
2012,02,22,17,23,17.70
2012,02,22,17,24,19.30
2012,02,22,17,25,16.10
2012,02,22,17,26,9.60